[[{"header":{"parameterUnit":"m.s-1","parameterCategory":1,"la1":30.2991,"la2":30.254,"lo1":-89.0895,"lo2":-89.0444,"dy":0.0017,"dx":0.0017,"nx":28,"ny":28,"refTime":"2025-12-16T09:00:00:Z","depth":0,"parameterNumber":2,"parameterNumberName":"U-component_of_WINDS"},"data":[0,0,0,0,0,0,0,0,0,0,0,0,0,0,0,0,0,0,0,0,0,0,0,0,0,0,0,0,0,0,0,0,0,0,0,0,0,0,0,0,0,0,0,0,0,0,0,0,0,0,0,0,0,0,0,0,0,0,-3.1382,-3.1383,0,-3.1474,-3.1475,-3.1476,-3.1362,-3.1358,-3.1354,-3.135,-3.1448,-3.1454,-3.1461,0,0,0,0,0,0,0,0,0,0,0,0,0,-3.1111,-3.1116,-3.1382,-3.1383,-3.1384,-3.1474,-3.1475,-3.1476,-3.1363,-3.1358,-3.1353,-3.1348,-3.1446,-3.1453,-3.1461,0,0,0,0,0,0,0,0,0,0,0,0,0,-3.1219,-3.1118,-3.1382,-3.1338,-3.1335,-3.1474,-3.1475,-3.1477,-3.1364,-3.1358,-3.1352,-3.1346,-3.1443,-3.1453,-3.1462,-3.1649,0,0,-3.1492,-3.1496,0,0,0,0,0,0,0,0,-3.1213,-3.1229,-3.1344,-3.1342,-3.1338,-3.14,-3.1415,-3.1535,-3.1366,-3.1353,-3.135,-3.1343,-3.1437,-3.1447,-3.1478,-3.1653,-3.1658,-3.1493,-3.1499,-3.1503,-3.1506,0,0,0,0,0,0,0,-3.1205,-3.1224,-3.1418,-3.1345,-3.1342,-3.1315,-3.1324,-3.1438,-3.143,-3.1354,-3.1346,-3.1358,-3.1435,-3.1469,-3.148,-3.1659,-3.1493,-3.1502,-3.1508,-3.1511,-3.1993,-3.1999,0,0,0,0,0,0,-3.1202,-3.1219,-3.1415,-3.1421,-3.1259,-3.1325,-3.1335,-3.1387,-3.1428,-3.1428,-3.1363,-3.1353,-3.1456,-3.1469,-3.1483,-3.1704,-3.1503,-3.1512,-3.1518,-3.1986,-3.1994,-3.2002,0,0,0,0,0,0,-3.1197,-3.1221,-3.1412,-3.1318,-3.134,-3.1337,-3.1396,-3.1392,-3.1426,-3.1435,-3.1434,-3.14,-3.1451,-3.1469,-3.1608,-3.1706,-3.1517,-3.1526,-3.1978,-3.1988,-3.1998,-3.2148,0,0,0,0,0,0,-3.119,-3.122,-3.129,-3.132,-3.1345,-3.1535,-3.1402,-3.1398,-3.1443,-3.143,-3.1469,-3.147,-3.1448,-3.1594,-3.1618,-3.1716,-3.1533,-3.1969,-3.1982,-3.1995,-3.2135,-3.2163,-3.2186,0,0,0,0,0,-3.118,-3.1329,-3.1294,-3.1318,-3.1432,-3.1541,-3.1555,-3.1526,-3.1451,-3.1522,-3.1528,-3.1468,-3.1692,-3.161,-3.1635,-3.1738,-3.1962,-3.1978,-3.1994,-3.2123,-3.2157,-3.2186,0,0,0,0,0,0,-3.1311,-3.1332,-3.1293,-3.1456,-3.1497,-3.1521,-3.1609,-3.1563,-3.1627,-3.1612,-3.1574,-3.1584,-3.1733,-3.1749,-3.1657,-3.1921,-3.1815,-3.1836,-3.1905,-3.1937,-3.1962,-3.1955,-3.1541,0,0,0,0,0,-3.1358,-3.1443,-3.1458,-3.16,-3.1622,-3.1613,-3.1659,-3.1633,-3.1675,-3.1692,-3.1708,-3.1752,-3.1832,-3.1885,-3.1959,-3.2137,-3.2144,-3.222,-3.2246,-3.2267,-3.2286,-3.2382,-3.2416,-3.2053,-3.2052,-3.2052,0,0,-3.1457,-3.148,-3.1536,-3.1626,-3.1655,-3.1746,-3.1628,-3.1728,-3.1795,-3.1707,-3.1839,-3.1853,-3.19,-3.2059,-3.213,-3.2077,-3.2388,-3.2287,-3.2304,-3.2311,-3.2401,-3.2436,-3.2466,-3.2063,-3.2061,-3.206,0,0,-3.1684,-3.1709,-3.183,-3.1862,-3.1907,-3.19,-3.193,-3.1961,-3.1966,-3.2098,-3.2035,-3.2114,-3.2253,-3.2289,-3.2325,-3.2567,-3.2515,-3.2593,-3.2728,-3.2822,-3.2851,-3.2876,-3.2962,-3.2994,-3.2612,-3.2612,-3.2612,0,-3.1802,-3.1933,-3.1899,-3.2004,-3.2046,-3.197,-3.2093,-3.2126,-3.2194,-3.2226,-3.2165,-3.2338,-3.2364,-3.2531,-3.259,-3.2622,-3.2655,-3.2588,-3.2849,-3.2874,-3.2897,-3.2979,-3.3012,-3.2621,-3.262,-3.2619,-3.2618,0,-3.2076,-3.2169,-3.2262,-3.2328,-3.2381,-3.2495,-3.2479,-3.2537,-3.2507,-3.2507,-3.2643,-3.2672,-3.275,-3.2788,-3.276,-3.2952,-3.2918,-3.2855,-3.2747,-3.2941,-3.3018,-3.3049,-3.2634,-3.2631,-3.2628,-3.2626,0,0,-3.2386,-3.2433,-3.2467,-3.2497,-3.2542,-3.2614,-3.2725,-3.2801,-3.2852,-3.2902,-3.2995,-3.3114,-3.3056,-3.3098,-3.3073,-3.3156,-3.3347,-3.3082,-3.3082,-3.313,-3.3561,-3.3608,-3.3645,-3.3312,-3.3318,-3.3323,-3.3557,0,-3.2613,-3.2803,-3.2776,-3.2961,-3.3046,-3.2977,-3.3074,-3.3113,-3.3116,-3.319,-3.3194,-3.328,-3.3196,-3.322,-3.3299,-3.3307,-3.3432,-3.3289,-3.3399,-3.3404,-3.3389,-3.3685,-3.3735,-3.3954,-3.3586,-3.3592,-3.3595,0,-3.2902,-3.2962,-3.3155,-3.3188,-3.3223,-3.331,-3.3378,-3.345,-3.3494,-3.349,-3.3538,-3.3499,-3.3611,-3.3503,-3.3658,-3.3561,-3.3605,-3.3616,-3.3624,-3.3632,-3.3511,-3.3702,-3.4023,-3.4056,-3.3642,-3.3638,-3.3635,0,-3.3109,-3.3238,-3.337,-3.3398,-3.3439,-3.3503,-3.3523,-3.356,-3.3608,-3.3669,-3.37,-3.3773,-3.3813,-3.3872,-3.3854,-3.3777,-3.4014,-3.3903,-3.4015,-3.4016,-3.4068,-3.4065,-3.4401,-3.4097,-3.4096,-3.4096,-3.4095,0,-3.3365,-3.3485,-3.3464,-3.3545,-3.3679,-3.3647,-3.3781,-3.3793,-3.3827,-3.391,-3.3855,-3.3935,-3.3907,-3.3986,-3.3973,-3.4104,-3.4123,-3.4124,-3.4119,-3.4129,-3.4129,-3.4156,-3.4141,-3.4104,-3.4102,-3.4101,-3.4099,0,-3.3618,-3.3608,-3.3747,-3.3775,-3.3785,-3.3883,-3.3907,-3.3985,-3.3984,-3.409,-3.4113,-3.4113,-3.4203,-3.4191,-3.4292,-3.4283,-3.4446,-3.4423,-3.4431,-3.4426,-3.4538,-3.4528,-3.4904,-3.4952,-3.4617,-3.462,-3.4623,0,-3.3781,-3.3872,-3.391,-3.3962,-3.3987,-3.4071,-3.4119,-3.4093,-3.4146,-3.4203,-3.4274,-3.4359,-3.4425,-3.4572,-3.4582,-3.4659,-3.4637,-3.4764,-3.4648,-3.4655,-3.4639,-3.4633,-3.4643,-3.4786,-3.479,-3.4793,-3.4795,0,-3.4072,-3.4063,-3.4135,-3.4206,-3.4266,-3.4321,-3.437,-3.4416,-3.4394,-3.4457,-3.4548,-3.46,-3.4702,-3.4788,-3.4861,-3.4883,-3.4837,-3.4832,-3.4862,-3.4872,-3.4873,-3.4874,-3.4493,-3.4823,-3.482,-3.4818,-3.4817,-3.4816,-3.4285,-3.4363,-3.4402,-3.4485,-3.4519,-3.4567,-3.4641,-3.465,-3.4725,-3.4806,-3.4786,-3.4889,-3.4932,-3.5025,-3.5055,-3.5136,-3.509,-3.5133,-3.5144,-3.5155,-3.5168,-3.4861,-3.515,-3.5149,-3.5148,-3.5147,-3.5147,0,-3.4573,-3.4595,-3.4671,-3.4742,-3.4808,-3.4758,-3.4811,-3.4869,-3.496,-3.5003,-3.507,-3.5175,-3.5258,-3.5275,-3.5354,-3.5416,-3.5397,-3.5438,-3.5433,-3.5439,-3.5205,-3.5171,-3.5452,-3.5452,-3.5452,-3.5452,-3.5452,-3.5452,-3.473,-3.486,-3.4856,-3.5003,-3.5024,-3.5124,-3.5159,-3.5203,-3.5238,-3.5358,-3.5426,-3.5436,-3.5469,-3.5551,-3.5625,-3.5628,-3.566,-3.5709,-3.5704,-3.5486,-3.5455,-3.5426,-3.5394,-3.5717,-3.5717,-3.5931,-3.5933,-3.5934]},{"header":{"parameterUnit":"m.s-1","parameterCategory":1,"la1":30.2991,"la2":30.254,"lo1":-89.0895,"lo2":-89.0444,"dy":0.0017,"dx":0.0017,"nx":28,"ny":28,"refTime":"2025-12-16T09:00:00:Z","depth":0,"parameterNumber":3,"parameterNumberName":"V-component_of_WINDS"},"data":[0,0,0,0,0,0,0,0,0,0,0,0,0,0,0,0,0,0,0,0,0,0,0,0,0,0,0,0,0,0,0,0,0,0,0,0,0,0,0,0,0,0,0,0,0,0,0,0,0,0,0,0,0,0,0,0,0,0,-1.6528,-1.6527,0,-1.6489,-1.6489,-1.6488,-1.6482,-1.6482,-1.6483,-1.6483,-1.6439,-1.6437,-1.6436,0,0,0,0,0,0,0,0,0,0,0,0,0,-1.6591,-1.659,-1.6528,-1.6527,-1.6527,-1.6489,-1.6489,-1.6488,-1.6482,-1.6482,-1.6483,-1.6483,-1.6439,-1.6438,-1.6436,0,0,0,0,0,0,0,0,0,0,0,0,0,-1.6559,-1.6589,-1.6528,-1.6519,-1.6518,-1.6489,-1.6489,-1.6488,-1.6482,-1.6482,-1.6483,-1.6483,-1.644,-1.6438,-1.6436,-1.6411,0,0,-1.6429,-1.6428,0,0,0,0,0,0,0,0,-1.6561,-1.6556,-1.6521,-1.652,-1.6519,-1.6491,-1.6495,-1.6462,-1.6482,-1.6496,-1.6483,-1.6484,-1.6456,-1.6452,-1.6443,-1.6409,-1.6407,-1.6428,-1.6427,-1.6426,-1.6426,0,0,0,0,0,0,0,-1.6563,-1.6558,-1.6512,-1.652,-1.6519,-1.6516,-1.6512,-1.6488,-1.6473,-1.6494,-1.6494,-1.649,-1.6455,-1.6446,-1.6442,-1.6406,-1.6429,-1.6427,-1.6425,-1.6424,-1.6347,-1.6347,0,0,0,0,0,0,-1.6567,-1.656,-1.6514,-1.6511,-1.6541,-1.6514,-1.651,-1.6499,-1.6473,-1.647,-1.6489,-1.6489,-1.6449,-1.6445,-1.6441,-1.6409,-1.6426,-1.6424,-1.6423,-1.6348,-1.6347,-1.6346,0,0,0,0,0,0,-1.6569,-1.6563,-1.6515,-1.6535,-1.6529,-1.6512,-1.6501,-1.6498,-1.6489,-1.6469,-1.6466,-1.6483,-1.645,-1.6444,-1.6418,-1.6407,-1.6423,-1.6421,-1.6349,-1.6348,-1.6347,-1.6346,0,0,0,0,0,0,-1.657,-1.6564,-1.6556,-1.6535,-1.6528,-1.6495,-1.65,-1.6497,-1.6486,-1.6486,-1.6463,-1.6459,-1.645,-1.6422,-1.6416,-1.6404,-1.6419,-1.635,-1.6348,-1.6347,-1.6346,-1.6345,-1.6343,0,0,0,0,0,-1.6573,-1.6556,-1.6555,-1.655,-1.6518,-1.6494,-1.649,-1.6481,-1.6485,-1.6476,-1.6463,-1.646,-1.641,-1.6419,-1.6413,-1.64,-1.635,-1.6349,-1.6347,-1.6347,-1.6345,-1.6343,0,0,0,0,0,0,-1.6574,-1.6554,-1.6552,-1.6529,-1.6514,-1.6493,-1.6482,-1.6479,-1.6461,-1.6461,-1.6449,-1.6443,-1.6418,-1.6407,-1.6418,-1.6374,-1.638,-1.6377,-1.6382,-1.638,-1.6378,-1.6381,-1.6417,0,0,0,0,0,-1.6572,-1.6557,-1.6539,-1.652,-1.6512,-1.6498,-1.6488,-1.6482,-1.6465,-1.6458,-1.6443,-1.6425,-1.6405,-1.6392,-1.6373,-1.6345,-1.6338,-1.6333,-1.6331,-1.633,-1.6327,-1.6309,-1.6306,-1.6341,-1.6341,-1.6341,0,0,-1.6567,-1.6554,-1.6545,-1.652,-1.6507,-1.6489,-1.6493,-1.6474,-1.646,-1.6454,-1.6429,-1.6418,-1.6397,-1.6369,-1.6357,-1.6359,-1.6316,-1.6328,-1.6327,-1.6325,-1.6307,-1.6304,-1.6301,-1.634,-1.634,-1.6341,0,0,-1.6549,-1.6538,-1.6521,-1.6508,-1.6489,-1.648,-1.6476,-1.6456,-1.6448,-1.6423,-1.6418,-1.64,-1.6366,-1.6351,-1.6339,-1.6313,-1.6309,-1.6307,-1.6298,-1.628,-1.6278,-1.6275,-1.6264,-1.6261,-1.6305,-1.6305,-1.6305,0,-1.6545,-1.652,-1.6512,-1.6493,-1.6481,-1.6476,-1.6457,-1.6445,-1.642,-1.6411,-1.6415,-1.6371,-1.6357,-1.6325,-1.6319,-1.6309,-1.6302,-1.6309,-1.6279,-1.6276,-1.6274,-1.6263,-1.6259,-1.6304,-1.6304,-1.6304,-1.6304,0,-1.6514,-1.6497,-1.6484,-1.6462,-1.6449,-1.643,-1.6417,-1.6404,-1.6399,-1.6389,-1.6362,-1.6344,-1.632,-1.6312,-1.6307,-1.6279,-1.6281,-1.6282,-1.6288,-1.627,-1.626,-1.6256,-1.6304,-1.6304,-1.6304,-1.6304,0,0,-1.6496,-1.6469,-1.6465,-1.6454,-1.6432,-1.6417,-1.6397,-1.6375,-1.6363,-1.6346,-1.6327,-1.6298,-1.6299,-1.6285,-1.6277,-1.6263,-1.6241,-1.6265,-1.6264,-1.6259,-1.6206,-1.6205,-1.62,-1.6239,-1.6238,-1.6237,-1.6208,0,-1.6474,-1.644,-1.6432,-1.6402,-1.6384,-1.6378,-1.636,-1.6344,-1.6333,-1.6315,-1.6303,-1.6282,-1.6285,-1.6276,-1.6261,-1.6247,-1.623,-1.6249,-1.6219,-1.6218,-1.6223,-1.6195,-1.6194,-1.6167,-1.6204,-1.6203,-1.6203,0,-1.6444,-1.6427,-1.6396,-1.6375,-1.6367,-1.6352,-1.633,-1.6313,-1.6294,-1.6287,-1.6271,-1.6264,-1.6241,-1.6248,-1.6214,-1.6227,-1.6214,-1.6205,-1.6204,-1.6199,-1.6208,-1.6189,-1.6158,-1.6154,-1.6196,-1.6197,-1.6197,0,-1.6432,-1.6401,-1.6378,-1.6369,-1.6345,-1.6333,-1.6322,-1.6304,-1.629,-1.627,-1.6261,-1.6239,-1.6226,-1.6207,-1.6194,-1.6201,-1.616,-1.6167,-1.6151,-1.6151,-1.6142,-1.6142,-1.6108,-1.6136,-1.6136,-1.6136,-1.6136,0,-1.6408,-1.6388,-1.6372,-1.6358,-1.6335,-1.6324,-1.6301,-1.629,-1.6273,-1.6254,-1.6248,-1.623,-1.6214,-1.6194,-1.6183,-1.6155,-1.615,-1.6142,-1.6139,-1.6141,-1.6142,-1.6132,-1.6133,-1.6135,-1.6135,-1.6136,-1.6136,0,-1.639,-1.6379,-1.6353,-1.6332,-1.6326,-1.631,-1.6291,-1.6276,-1.6265,-1.6241,-1.6235,-1.6217,-1.6192,-1.6177,-1.6146,-1.6139,-1.6107,-1.6106,-1.6114,-1.6112,-1.6097,-1.6098,-1.6053,-1.6046,-1.6081,-1.608,-1.608,0,-1.6375,-1.636,-1.6338,-1.6325,-1.6315,-1.6295,-1.6282,-1.627,-1.6256,-1.6231,-1.6218,-1.6193,-1.6173,-1.6133,-1.6116,-1.6091,-1.6088,-1.6074,-1.6084,-1.6087,-1.6085,-1.6086,-1.6083,-1.6072,-1.6072,-1.6071,-1.6071,0,-1.6348,-1.6343,-1.6325,-1.6304,-1.6288,-1.6271,-1.6254,-1.6244,-1.6229,-1.6212,-1.6188,-1.6172,-1.614,-1.6115,-1.6088,-1.6074,-1.6069,-1.6068,-1.6063,-1.6065,-1.607,-1.6065,-1.6108,-1.6069,-1.6069,-1.6069,-1.6069,-1.607,-1.633,-1.6316,-1.6298,-1.6277,-1.6263,-1.6246,-1.623,-1.6217,-1.6197,-1.6171,-1.6165,-1.6139,-1.6117,-1.6081,-1.6067,-1.6044,-1.6046,-1.6039,-1.6037,-1.6035,-1.6033,-1.6074,-1.6039,-1.6039,-1.6039,-1.6039,-1.6039,0,-1.6302,-1.629,-1.6271,-1.6247,-1.623,-1.6228,-1.6209,-1.6194,-1.6171,-1.6152,-1.6132,-1.6103,-1.6078,-1.6058,-1.6032,-1.6017,-1.6014,-1.6011,-1.6011,-1.6007,-1.6034,-1.6041,-1.6014,-1.6014,-1.6014,-1.6014,-1.6014,-1.6014,-1.6285,-1.626,-1.6252,-1.6219,-1.6207,-1.6182,-1.6171,-1.6154,-1.6139,-1.6107,-1.6087,-1.6075,-1.6055,-1.6027,-1.6003,-1.5997,-1.5987,-1.5984,-1.5977,-1.6003,-1.6005,-1.6008,-1.6014,-1.5982,-1.5982,-1.5952,-1.5952,-1.5952]}]]